BREEZE-M DEB (TANK)

Satellite information

Favourite Embed

Satellite Type and Status

DEBRISIN ORBIT

Key statistics

Satellite BREEZE-M DEB (TANK) at a glance.

Uptime

2951

Days in orbit

Revolutions

≈ 6.4

Per day

Orbit

MEO

Medium Earth Orbit

Inclination

49.7

Latest

Satellite identification and parameters

Extended collection of information and parameters for BREEZE-M DEB (TANK).

Object identification

Identified? True

Debris? True

Object name: BREEZE-M DEB (TANK)

International designator: 2017-032C

Object number (NORAD): 42751

Object ID (CCSDS): 42751

Country: COMMONWEALTH OF INDEPENDENT STATES (CIS)

Current information (Y/N): Y

RCS size: LARGE

Orbital parameters

Period: 226.73 minutes

Inclination: 49.7096 deg

SMA: 12316.856 km

Apoapsis: 11549.282 km

Periapsis: 328.161 km

RAAN: 252.9565 deg

Eccentricy: 0.4555189

Argument of periapsis: 318.0259 deg

Mean anomaly: 14.8789 deg

Mean motion: 6.35115839 rev/day

Mean motion (dot): 0.00002339 rev/day2

B* drag term: 0.00046908 1/REarth

Two-line elements (TLE)

Creation date: July 6, 2025, 6:05 p.m.

Reference frame: TEME

Reference center: EARTH

Epoch: July 6, 2025, 10:44 a.m. UTC

TLE line 0: 0 BREEZE-M DEB (TANK)

TLE line 1: 1 42751U 17032C 25187.44749112 .00002339 00000-0 46908-3 0 9994

TLE line 2: 2 42751 49.7096 252.9565 4555189 318.0259 14.8789 6.35115839184073

Live tracking on map

Real-time ground track for satellite BREEZE-M DEB (TANK).

In-orbit conjunctions

There are no conjunctions computed for BREEZE-M DEB (TANK), at the moment. Check back to stay up to date, as we update our databases every day.

Go to all conjunctions

Associated space launch

Echostar 21, formerly known as TerreStar 2, is a geostationary communications satellite built by Space System/Loral company. Equipped with S-band transponders, satellite is tasked with providing mobile broadband services over Europe. The spacecraft, based on SSL’s 1300 bus, will be located at the 10.25° East orbital slot.

BREEZE-M DEB (TANK) was lifted into orbit during the mission ‘Proton-M Briz-M | Echostar 21’, on board a Proton-M Briz-M space rocket.

The launch took place on June 8, 2017, 3:45 a.m. from 81/24 (81P).

For more information about the launch, click the button.

Launch to space Proton-M Briz-M | Echostar 21
Proton-M Briz-M | Echostar 21

Agency: N/A

Status: Launch Successful

Launch date: June 8, 2017, 3:45 a.m. UTC

Rocket: Proton-M Briz-M

Launch pad: 81/24 (81P)

Location: Baikonur Cosmodrome, Republic of Kazakhstan

...

Latest news about this satellite

There are no fresh news available about this satellite. Check back as we update our databases every day.


Newsletter sign-up

Weekly statistics, charts and insights to help you stay on top of the space industry.